User: anonymous   Login
Location: Casaglia
(44.0333°N, 11.5167°E)
Time: 16:27:50
(UTC+00:00)
Language:

Cosmos 1869 - Orbit

View from above orbital plane
View from above orbital plane
View from above satellite
View from above satellite

Ground track
Ground track

The orbit data is extracted from the following two-line orbital elements,

1 18214U 87062A   20225.04992743  .00000427  00000-0  25374-4 0  9996
2 18214  82.4922  50.0013 0031416 266.7877  92.9757 15.08254888802099
Epoch (UTC): 12 August 2020 01:11:53
Eccentricity: 0.0031416
inclination: 82.4922°
perigee height: 520 km
apogee height: 563 km
right ascension of ascending node: 50.0013°
argument of perigee: 266.7877°
revolutions per day: 15.08254888
mean anomaly at epoch: 92.9757°
orbit number at epoch: 80209

The dashed part of the orbit path shows where the satellite is in the earth's shadow,  

DLR